EW2077 Weather Reports


Display with metric or nautical units.
time (UTC)temp
F
wind
direction
speed
MPH
gust
MPH
rain 1hr
in
rain 24hr
in
rain mn
in
humidity
%
barometer
mb
20260508140007 37 60 0.0 0.0 0.00 0.00 0.00 91 1040.0
20260508134506 36 60 0.0 0.0 0.00 0.00 0.00 90 1040.1
20260508133009 35 60 0.0 0.0 0.00 0.00 0.00 91 1040.2
20260508131505 34 60 0.0 0.0 0.00 0.00 0.00 91 1040.1
20260508130004 33 60 0.0 0.0 0.00 0.00 0.00 90 1040.0
20260508124501 32 60 0.0 0.0 0.00 0.00 0.00 90 1039.7
20260508123104 32 60 0.0 0.0 0.00 0.00 0.00 90 1039.1
20260508121601 32 60 0.0 0.0 0.00 0.00 0.00 90 1038.7
20260508120056 32 60 0.0 0.0 0.00 0.00 0.00 90 1038.4
20260508114554 32 60 0.0 0.0 0.00 0.00 0.00 89 1038.4
20260508113101 33 60 0.0 0.0 0.00 0.00 0.00 90 1038.1
20260508111556 33 5 0.0 0.0 0.00 0.00 0.00 89 1038.0
20260508110048 33 5 0.0 0.0 0.00 0.00 0.00 89 1038.0
20260508104551 33 5 0.0 0.0 0.00 0.00 0.00 89 1038.1
20260508103046 33 5 0.0 0.0 0.00 0.00 0.00 89 1038.1
20260508101548 33 5 0.0 1.0 0.00 0.00 0.00 88 1037.9
20260508100043 33 5 0.0 0.0 0.00 0.00 0.00 87 1038.0
20260508094542 34 5 0.0 0.0 0.00 0.00 0.00 87 1037.9
20260508093038 35 5 0.0 0.0 0.00 0.00 0.00 86 1037.7
20260508091603 35 5 0.0 0.0 0.00 0.00 0.00 86 1038.1
20260508090036 35 5 0.0 0.0 0.00 0.00 0.00 86 1037.8
20260508084533 35 5 0.0 0.0 0.00 0.00 0.00 85 1037.9
20260508083035 36 5 0.0 0.0 0.00 0.00 0.00 84 1038.0
20260508081527 36 5 0.0 0.0 0.00 0.00 0.00 83 1038.1
20260508080032 37 5 0.0 0.0 0.00 0.00 0.00 83 1038.2
20260508074523 38 5 0.0 0.0 0.00 0.00 0.00 83 1038.4
20260508073025 38 5 0.0 0.0 0.00 0.00 0.00 83 1038.6
20260508071519 38 5 0.0 0.0 0.00 0.00 0.00 81 1038.8
20260508070015 39 5 0.0 0.0 0.00 0.00 0.00 81 1038.8
20260508064520 39 5 0.0 1.0 0.00 0.00 0.00 81 1039.4
20260508063012 39 5 0.0 0.0 0.00 0.00 0.00 79 1039.1
20260508061510 39 5 0.0 0.0 0.00 0.00 0.00 78 1039.0
20260508060008 39 5 0.0 0.0 0.00 0.00 0.00 75 1038.9
20260508054505 41 5 0.0 0.0 0.00 0.00 0.00 73 1039.1
20260508053006 41 5 0.0 0.0 0.00 0.00 0.00 71 1038.8
20260508051504 40 5 0.0 0.0 0.00 0.00 0.00 72 1038.7
20260508050004 41 5 0.0 0.0 0.00 0.00 0.00 71 1038.6
20260508044503 42 5 0.0 0.0 0.00 0.00 0.00 69 1038.5
20260508043003 42 5 0.0 0.0 0.00 0.00 0.00 67 1038.5
20260508041507 43 5 0.0 0.0 0.00 0.00 0.00 66 1038.6
20260508040001 43 5 0.0 0.0 0.00 0.00 0.00 65 1038.7
20260508034601 43 5 0.0 0.0 0.00 0.00 0.00 66 1038.7
20260508033105 44 5 0.0 0.0 0.00 0.00 0.00 65 1038.7
20260508031605 45 5 0.0 0.0 0.00 0.00 0.00 62 1038.8
20260508030115 48 5 0.0 0.0 0.00 0.00 0.00 58 1038.8
20260508024603 49 5 0.0 0.0 0.00 0.00 0.00 55 1038.8
20260508023059 49 14 0.0 3.0 0.00 0.00 0.00 55 1038.8
20260508021558 50 5 0.0 7.0 0.00 0.00 0.00 53 1039.2
20260508020107 51 23 0.0 5.0 0.00 0.00 0.00 51 1039.2
20260508014557 52 52 0.0 1.0 0.00 0.00 0.00 46 1038.9
20260508013057 52 86 0.0 3.0 0.00 0.00 0.00 45 1038.6
20260508011556 54 115 0.0 9.0 0.00 0.00 0.00 41 1038.7
20260508010105 55 306 1.0 10.0 0.00 0.00 0.00 38 1038.6
20260508004555 56 169 0.0 2.0 0.00 0.00 0.00 37 1038.5
20260508003102 57 76 0.0 2.0 0.00 0.00 0.00 38 1038.4
20260508001557 56 349 1.0 8.0 0.00 0.00 0.00 36 1038.4
20260508000052 56 213 0.0 4.0 0.00 0.00 0.00 37 1038.7
20260507234551 56 5 0.0 6.0 0.00 0.00 0.00 36 1038.6
20260507233051 56 313 1.0 10.0 0.00 0.00 0.00 35 1038.5
20260507231550 56 5 0.0 5.0 0.00 0.00 0.00 35 1038.7
20260507230104 56 183 0.0 3.0 0.00 0.00 0.00 35 1039.1
20260507224545 56 336 0.0 2.0 0.00 0.00 0.00 34 1039.2
20260507223128 55 11 1.0 7.0 0.00 0.00 0.00 35 1039.4
20260507221539 55 16 1.0 6.0 0.00 0.00 0.00 36 1039.8
20260507220036 55 107 0.0 11.0 0.00 0.00 0.00 36 1040.2
20260507214539 55 14 0.0 6.0 0.00 0.00 0.00 35 1040.5
20260507213034 55 217 0.0 9.0 0.00 0.00 0.00 35 1040.8
20260507211530 55 130 0.0 6.0 0.00 0.00 0.00 35 1041.1
20260507210036 55 98 0.0 5.0 0.00 0.00 0.00 36 1041.4
20260507204532 54 260 0.0 8.0 0.00 0.00 0.00 36 1041.7
20260507203033 53 304 0.0 2.0 0.00 0.00 0.00 37 1041.9
20260507201522 53 348 0.0 0.0 0.00 0.00 0.00 40 1042.1
20260507200044 53 338 0.0 0.0 0.00 0.00 0.00 40 1042.5
20260507194518 53 360 0.0 10.0 0.00 0.00 0.00 39 1042.7
20260507193036 53 145 0.0 1.0 0.00 0.00 0.00 38 1042.8
20260507191518 54 209 0.0 4.0 0.00 0.00 0.00 42 1043.0
20260507190012 53 60 0.0 3.0 0.00 0.00 0.00 46 1043.3
20260507184511 52 130 0.0 3.0 0.00 0.00 0.00 46 1043.3
20260507183007 50 285 0.0 3.0 0.00 0.00 0.00 53 1043.5
20260507181501 48 288 0.0 0.0 0.00 0.00 0.00 63 1043.9
20260507180059 48 311 0.0 0.0 0.00 0.00 0.00 60 1043.9
20260507174602 47 311 0.0 0.0 0.00 0.00 0.00 56 1044.2
20260507173059 45 311 0.0 0.0 0.00 0.00 0.00 62 1044.7
20260507171603 45 310 0.0 0.0 0.00 0.00 0.00 65 1044.7
20260507170053 45 309 0.0 0.0 0.00 0.00 0.00 67 1045.0
20260507164551 45 309 0.0 0.0 0.00 0.00 0.00 65 1045.2
20260507163048 46 309 0.0 2.0 0.00 0.00 0.00 60 1045.6
20260507161556 46 288 0.0 0.0 0.00 0.00 0.00 57 1045.6
20260507160046 47 10 0.0 8.0 0.00 0.00 0.00 53 1045.9
20260507154545 47 355 1.0 5.0 0.00 0.00 0.00 52 1046.0
20260507153052 48 53 0.0 3.0 0.00 0.00 0.00 52 1046.4
20260507151543 48 137 0.0 0.0 0.00 0.00 0.00 52 1046.3
20260507150049 49 342 0.0 3.0 0.00 0.00 0.00 56 1046.6
20260507144535 47 292 0.0 0.0 0.00 0.00 0.00 65 1046.7
20260507143031 45 292 0.0 0.0 0.00 0.00 0.00 68 1046.8
20260507141527 43 292 0.0 0.0 0.00 0.00 0.00 70 1046.9